Overview Statistics Trail Chart Weather Telemetry Raw packets
 

This is the latest recevied weather packets stored in our database for station/object E25DQY-1. If no packets are shown the sender has not sent any weather packets the latest 10 day(s).

<< 15 16 17 18 19 >>
Time Temp. Humidity Pressure Rain* Wind** Luminosity Snow
1787947524 21.11° C 43% 1004 hPa - - 0 W/m² -
1787945702 21.11° C 43% 1004 hPa - - 0 W/m² -
1787943880 21.11° C 43% 1004 hPa - - 0 W/m² -
1787942058 21.11° C 43% 1005 hPa - - 0 W/m² -
1787940236 21.67° C 43% 1005 hPa - - 0 W/m² -
1787938413 21.67° C 43% 1005 hPa - - 0 W/m² -
1787936591 21.67° C 43% 1006 hPa - - 0 W/m² -
1787934769 21.67° C 43% 1006 hPa - - 0 W/m² -
1787932947 22.22° C 43% 1006 hPa - - 0 W/m² -
1787931125 22.22° C 43% 1006 hPa - - 0 W/m² -
1787929303 22.78° C 43% 1006 hPa - - 0 W/m² -
1787927481 22.78° C 43% 1005 hPa - - 0 W/m² -
1787925659 23.33° C 42% 1004 hPa - - 0 W/m² -
1787923837 23.89° C 43% 1004 hPa - - 0 W/m² -
1787922015 25.56° C 48% 1004 hPa - - 0 W/m² -
1787920193 25.56° C 49% 1003 hPa - - 0 W/m² -
1787918373 26.67° C 48% 1003 hPa - - 0 W/m² -
1787916549 28.33° C 54% 1003 hPa - - 0 W/m² -
1787914726 28.33° C 50% 1002 hPa - - 0 W/m² -
1787912904 27.78° C 38% 1002 hPa - - 0 W/m² -
1787911082 31.67° C 40% 1002 hPa - - 0 W/m² -
1787909260 37.22° C 49% 1002 hPa - - 0 W/m² -
1787907438 38.33° C 49% 1002 hPa - - 0 W/m² -
1787905616 38.89° C 48% 1002 hPa - - 0 W/m² -
1787903794 38.89° C 48% 1003 hPa - - 0 W/m² -

* Rain since midnight (hover to see other rain measurements)
** Current wind speed in m/s (hover to see current wind gust speed)